Regional Weather Roundup
Issued by NWS Little Rock, AR

Home | Current Version | Previous Version | Text Only | Print | Product List | Glossary Off
Versions: 1 2 3 4 5 6 7 8 9 10 11 12 13 14 15 16 17 18 19 20 21 22 23 24 25 26 27 28 29 30 31 32 33 34 35 36 37 38 39 40 41 42 43 44 45 46 47 48 49 50

000
ASUS44 KLZK 222005
RWRLZK

WEATHER ROUNDUP FOR ARKANSAS
NATIONAL WEATHER SERVICE LITTLE ROCK AR
300 PM CDT TUE JUL 22 2014

NOTE: "FAIR" INDICATES FEW OR NO CLOUDS BELOW 12,000 FEET WITH NO
SIGNIFICANT WEATHER AND/OR OBSTRUCTIONS TO VISIBILITY.

ARZ001-003-010-029-222100-
NORTHWEST ARKANSAS

CITY           SKY/WX    TMP DP  RH WIND       PRES   REMARKS
FAYETTEVILLE   MOSUNNY   91  74  57 W9        30.11S HX 100
FORT SMITH     MOSUNNY   92  71  50 VRB3      30.06F HX  98
HARRISON       MOSUNNY   90  70  51 VRB3      30.11S HX  95
BENTONVILLE    PTSUNNY   90  72  55 W3        30.13S HX  96
ROGERS         PTSUNNY   89  72  56 NE3       30.12F HX  96
SILOAM SPGS    CLOUDY    90  72  55 NW6       30.12S HX  96
HIGHFILL       MOSUNNY   90  74  59 VRB3      30.11S HX  99
SPRINGDALE     PTSUNNY   90  73  58 NW5       30.13S HX  98
$$

ARZ004-005-016-222100-
NORTH CENTRAL ARKANSAS

CITY           SKY/WX    TMP DP  RH WIND       PRES   REMARKS
BATESVILLE     SUNNY     88  68  51 CALM      30.08F HX  91
FLIPPIN        SUNNY     90  68  48 E7        30.08F HX  93
MTN HOME       SUNNY     88  71  57 VRB3      30.08F HX  94
$$

ARZ040-041-222100-
WEST CENTRAL ARKANSAS

CITY           SKY/WX    TMP DP  RH WIND       PRES   REMARKS
MENA           PTSUNNY   90  73  58 CALM      30.10F HX  98
MOUNT IDA      PTSUNNY   86  69  56 SE5       30.08F HX  90
$$

ARZ009-017-025-026-028-222100-
NORTHEAST ARKANSAS

CITY           SKY/WX    TMP DP  RH WIND       PRES   REMARKS
CORNING        LGT RAIN  88  66  48 S6        30.08F HX  90
JONESBORO      MOSUNNY   88  67  49 S8        30.07F HX  91
NEWPORT        MOSUNNY   88  69  53 VRB3      30.09F HX  92
WALNUT RIDGE   SUNNY     88  55  33 SE3       30.07S HX  86
BLYTHEVILLE    MOSUNNY   90  69  50 CALM      30.07F HX  94
$$

ARZ022-023-033-042-044-222100-
CENTRAL ARKANSAS

CITY           SKY/WX    TMP DP  RH WIND       PRES   REMARKS
LITTLE ROCK    MOSUNNY   88  66  48 S5        30.08F HX  90
JACKSONVILLE   PTSUNNY   82  68  61 W2        30.10S HX  85
SEARCY         SUNNY     89  69  51 VRB5      30.09F HX  93
HOT SPRINGS    MOSUNNY   87  68  52 SW7       30.09F HX  90
RUSSELLVILLE   SUNNY     89  70  53 VRB5      30.08F HX  94
CLINTON        FAIR      90  70  51 W3        30.09S HX  95
$$

ARZ036-222100-
EAST ARKANSAS

CITY           SKY/WX    TMP DP  RH WIND       PRES   REMARKS
WEST MEMPHIS   SUNNY     88  71  57 W6        30.06F HX  94
$$

ARZ050-053-066-070-073-222100-
SOUTHWEST ARKANSAS

CITY           SKY/WX    TMP DP  RH WIND       PRES   REMARKS
ARKADELPHIA    FAIR      89  69  51 CALM      30.08F HX  93
CAMDEN         MOSUNNY   91  66  43 NE6       30.07F HX  94
TEXARKANA      MOSUNNY   88  68  51 E5        30.08S HX  91
EL DORADO      SUNNY     89  67  47 VRB5      30.08F HX  92
DE QUEEN       MOSUNNY   89  71  55 E7        30.06F HX  95
$$

ARZ056-057-069-222100-
SOUTHEAST ARKANSAS

CITY           SKY/WX    TMP DP  RH WIND       PRES   REMARKS
PINE BLUFF     MOSUNNY   87  67  51 CALM      30.08F HX  90
STUTTGART      PTSUNNY   84  66  54 NE3       30.09F HX  86
MONTICELLO     MOSUNNY   88  67  49 VRB3      30.07F HX  91

$$





USA.gov is the U.S. government's official web portal to all federal, state and local government web resources and services.